Location: *
(49.4547°N, 7.9131°E)
Time: 01:32:21
(UTC+00:00)

SPOT 5 - Pass Details

Date: 22 September 2019
Orbit: 624 x 814 km, 98.3° (Epoch: 21 October)

Event Time Altitude Azimuth Distance (km) Brightness Sun altitude
Exits shadow 21:05:29 39° 345° (NNW) 1,115 4.1 -32.5°
Drops below altitude 10° 21:08:40 10° 346° (NNW) 2,310 6.2 -32.8°
Sets 21:11:03 0° 346° (NNW) 3,267 7.1 -33.1°
